GFSNW_sfc_thetae_273.txt.gz
Theta_e
310 310 310 310 309 307 309 315 310 320 320 312 306 307 307 304 307 311 310 309 308 305 307 305 304 304 307 313 309 305 306 305 299 299 305 309 307 303 301 297 294 297 297 295
310 309 309 309 309 307 310 314 313 320 321 306 306 307 306 309 309 309 309 308 311 310 306 304 304 306 312 313 312 307 308 302 296 297 301 305 304 305 303 301 300 295 293 296
310 309 309 309 309 308 312 312 310 314 312 308 306 304 305 307 310 310 310 309 310 309 307 309 306 307 311 314 311 312 313 304 299 294 296 301 300 300 303 301 297 297 297 298
310 310 310 309 309 307 314 309 305 306 305 307 305 304 305 305 305 311 311 309 308 308 306 306 306 308 309 310 311 309 311 301 303 304 304 304 301 300 300 298 300 295 297 296
310 310 310 310 309 307 311 308 307 308 308 306 306 304 306 305 308 310 307 307 307 308 306 305 305 307 308 306 310 309 308 303 304 300 303 301 299 300 301 300 300 299 298 298
310 310 310 310 310 308 310 308 310 309 303 307 306 306 305 305 311 312 311 309 307 306 308 310 311 310 310 310 308 307 306 304 300 296 301 300 296 301 301 300 301 300 297 301
309 310 310 310 310 305 306 305 309 309 304 307 305 307 306 306 308 309 309 310 308 309 312 311 313 313 312 312 310 310 306 304 302 298 299 290 301 308 306 303 302 301 302 302
309 309 310 311 311 309 308 306 311 310 305 306 308 308 307 308 311 309 310 312 313 311 308 305 302 304 306 308 307 309 310 305 298 297 296 298 301 305 303 301 301 304 302 302
308 309 310 310 311 310 306 306 307 313 308 306 309 308 308 308 307 308 310 314 316 311 305 303 296 296 301 301 304 308 308 307 303 298 291 289 301 306 308 307 297 303 303 302
307 308 310 311 311 311 307 308 309 313 308 309 310 308 308 311 309 308 309 311 312 313 306 300 299 300 303 300 300 300 303 302 298 297 296 299 305 307 307 293 295 303 304 303
306 309 310 310 311 311 307 308 309 310 309 310 311 310 310 309 310 308 310 308 310 310 305 305 304 303 304 303 303 302 300 299 299 298 294 290 307 305 299 304 304 304 304 304
308 309 309 310 310 311 307 310 309 310 311 310 312 312 312 313 313 313 311 309 309 312 309 307 306 303 304 302 300 306 301 304 301 301 301 306 308 308 308 307 306 304 304 303
308 307 310 310 310 310 308 306 305 311 311 310 311 310 315 317 317 318 312 311 312 311 312 309 306 303 305 302 302 304 306 307 306 304 305 306 306 306 306 307 306 305 305 304
308 310 310 310 310 310 308 308 307 310 310 306 308 315 313 314 317 316 315 314 313 312 308 305 304 304 305 303 303 304 307 308 304 304 307 307 305 306 306 306 306 305 305 304
309 310 310 310 309 309 308 309 309 311 309 306 309 312 313 313 316 314 315 314 313 310 308 306 304 306 306 305 306 305 309 306 306 303 309 309 307 307 307 305 305 305 304 303
309 310 309 309 309 308 313 306 311 310 310 308 304 310 309 311 313 313 312 312 310 309 308 305 307 308 306 303 301 307 308 309 311 309 310 308 308 307 307 306 305 306 304 304
309 309 309 309 309 310 306 303 308 308 312 308 304 304 309 309 310 310 311 311 308 309 307 306 307 307 306 303 299 305 307 311 310 310 309 305 306 305 307 307 306 306 305 305
308 309 309 309 308 309 308 311 309 310 311 307 301 302 306 309 306 306 308 309 310 307 305 306 305 307 306 301 306 308 309 308 308 308 309 309 309 307 306 307 306 304 304 305
308 309 309 312 310 307 308 311 311 312 310 303 304 300 300 307 305 305 308 307 304 305 305 304 305 304 301 304 306 308 310 308 308 307 306 307 306 305 306 305 305 303 304 304
307 310 306 302 306 310 310 309 307 306 304 304 299 303 299 303 303 303 305 305 301 300 301 306 303 302 307 309 310 311 310 310 310 306 301 303 305 305 305 305 305 305 305 305
306 304 302 307 307 308 304 299 300 300 299 301 301 300 300 303 301 302 302 302 302 298 300 302 299 299 304 308 309 311 311 311 311 312 311 309 307 306 306 305 306 306 306 305
305 305 305 305 302 299 297 294 298 297 296 302 300 301 302 304 306 303 303 301 301 295 302 301 296 302 305 306 308 310 312 311 311 312 310 306 306 307 308 307 306 306 307 308
307 303 300 298 297 292 292 290 295 297 300 302 302 300 300 304 304 303 302 298 298 302 299 296 299 304 305 306 308 309 312 312 311 311 311 309 305 308 308 307 308 307 307 308
301 297 289 294 293 296 296 297 298 301 301 302 301 300 300 300 301 301 297 299 301 294 294 294 301 304 305 307 308 308 309 310 310 310 311 310 306 306 307 308 308 307 306 307
298 298 290 296 299 300 301 301 300 300 302 302 300 301 301 300 298 299 298 295 293 295 295 300 304 305 306 306 307 308 309 309 309 310 310 311 308 305 306 307 308 308 308 308
300 297 296 299 299 298 300 299 299 301 302 302 301 297 296 296 297 295 294 293 292 296 302 305 306 305 306 307 308 309 310 310 310 310 310 309 305 304 305 306 308 308 308 308
296 295 298 299 299 299 300 300 300 301 303 299 299 293 293 298 295 294 298 296 300 303 305 307 306 305 306 308 309 310 310 311 310 309 306 304 303 303 303 304 307 309 309 310

GFSNW_sfc_thetae_276.txt.gz
Theta_e
310 310 310 310 310 307 316 328 314 326 329 312 319 311 312 305 311 315 313 314 313 310 311 308 308 308 312 316 314 310 313 311 304 304 309 311 310 307 307 301 297 303 300 297
310 310 310 310 310 308 323 322 320 328 328 307 311 313 311 314 311 313 312 311 314 315 311 307 309 311 314 316 315 313 313 307 299 301 305 309 306 307 307 306 306 299 296 298
310 310 310 310 309 308 320 322 312 318 320 319 314 311 310 310 315 314 315 313 314 311 309 313 309 310 312 315 313 314 317 308 302 298 301 306 303 303 306 305 300 299 298 299
310 310 310 310 309 308 321 319 313 313 312 313 314 314 312 309 309 315 316 313 312 310 308 309 309 312 311 312 311 314 314 304 306 306 306 305 304 303 303 302 302 298 299 300
310 310 310 310 309 307 321 318 317 320 317 314 313 309 311 310 312 313 311 311 313 313 311 311 309 312 313 310 313 313 314 306 307 303 305 304 301 303 303 302 302 302 302 300
310 310 310 311 310 312 319 321 322 318 308 313 313 312 311 312 315 315 316 314 312 311 312 315 315 316 316 316 312 312 311 309 304 299 303 302 300 303 303 303 305 303 300 305
309 310 311 311 311 310 321 317 320 317 310 313 312 311 312 311 314 313 313 315 312 313 317 318 317 317 315 315 316 317 311 308 307 300 302 293 304 310 307 304 305 307 306 306
309 310 311 311 311 310 319 319 320 318 311 314 312 313 313 315 316 314 314 316 319 318 314 308 305 307 310 311 313 314 315 310 303 298 299 300 303 306 305 303 302 307 305 306
309 310 311 311 311 310 319 317 320 322 314 311 314 314 315 312 312 313 314 320 324 319 311 306 298 299 302 303 307 313 312 312 305 302 294 292 303 308 311 309 298 307 307 306
310 310 311 311 312 311 316 317 320 321 315 315 317 316 315 318 316 314 316 317 317 320 310 303 302 302 307 301 300 304 306 307 300 299 299 301 309 310 311 297 300 308 307 306
308 308 310 311 311 311 314 317 320 319 315 315 316 317 315 316 318 314 317 315 315 314 307 307 308 306 309 307 308 306 303 302 300 301 298 294 312 310 303 309 311 308 307 306
308 309 311 311 311 311 311 317 320 320 318 315 320 319 320 319 318 318 320 317 315 316 312 314 314 308 310 308 302 311 304 307 303 304 304 312 314 313 314 312 308 308 307 307
310 310 310 311 311 311 311 317 317 321 315 314 316 314 320 323 322 324 316 317 319 318 320 315 313 308 311 306 306 307 310 313 308 309 311 311 312 313 313 312 310 309 309 307
309 310 311 311 311 310 311 315 318 321 319 309 312 321 316 320 323 322 322 320 322 323 317 314 313 310 313 308 308 307 311 313 307 307 311 312 311 312 311 311 310 308 307 307
309 310 311 311 310 309 316 318 317 318 316 309 311 317 318 319 320 319 321 322 321 317 315 313 311 315 313 312 312 308 313 312 308 305 313 311 312 313 312 310 308 307 306 305
309 310 310 311 310 310 320 310 317 317 319 315 306 316 314 316 317 317 318 318 318 317 314 313 314 313 312 308 303 311 313 317 317 313 315 314 315 313 312 310 309 307 306 307
309 309 310 310 309 316 311 308 312 310 320 314 307 308 314 316 317 318 316 319 316 315 315 313 313 312 313 308 304 312 314 315 316 316 315 311 312 311 312 311 309 308 308 308
308 309 310 310 310 309 312 316 312 313 318 315 308 306 310 316 312 312 317 314 315 314 313 313 312 313 313 306 311 313 315 316 314 314 314 315 315 314 312 312 309 307 306 307
308 309 310 316 314 311 313 313 312 321 316 307 311 306 303 314 313 315 315 316 307 315 309 309 312 309 304 308 310 312 313 314 315 316 313 310 312 311 311 310 308 307 306 307
308 313 311 307 312 310 314 316 311 312 313 313 306 310 306 309 312 310 312 314 309 305 308 314 308 305 311 311 313 314 315 315 317 314 311 310 311 309 311 309 309 308 308 307
314 311 309 315 312 315 312 306 304 307 303 309 309 308 306 312 307 307 311 308 310 302 305 307 304 302 307 312 312 314 316 315 315 317 317 316 314 313 311 309 310 309 309 307
309 312 312 314 310 307 301 301 305 303 301 309 307 306 309 312 314 309 310 306 307 298 311 306 300 305 309 310 311 312 314 314 314 315 315 317 315 314 313 311 311 311 311 310
316 310 305 304 305 296 295 294 300 302 306 307 308 306 309 311 312 309 307 300 301 310 305 302 302 308 309 310 311 311 313 314 314 314 315 316 316 314 313 311 312 312 311 311
308 302 291 300 298 301 302 301 303 306 308 308 308 308 305 308 305 306 298 304 305 299 298 297 304 307 309 311 312 312 312 314 314 314 315 315 316 314 310 311 313 312 311 310
303 304 294 300 304 305 304 306 306 306 309 308 308 307 307 304 301 304 302 298 296 299 298 302 307 310 311 311 312 312 312 314 314 314 314 315 316 314 311 309 311 311 311 312
305 304 302 305 303 303 304 305 304 306 308 311 308 303 300 299 301 298 297 296 295 299 305 308 309 310 311 312 312 312 312 312 313 311 312 313 313 313 311 308 309 310 312 312
301 302 307 306 305 303 304 305 304 308 306 303 304 296 297 303 299 297 303 299 301 306 307 309 312 311 311 312 312 311 311 313 314 314 314 310 308 305 304 303 307 312 315 314

GFSNW_sfc_thetae_279.txt.gz
Theta_e
311 311 311 311 310 308 314 325 316 327 330 315 316 316 315 308 315 318 315 316 314 312 311 310 309 311 315 318 317 312 315 311 304 306 311 311 310 308 308 302 299 303 300 301
310 310 310 311 310 308 326 322 321 328 328 311 311 316 314 315 315 315 314 312 314 313 310 308 310 313 315 317 317 315 315 311 301 304 308 310 307 308 308 308 309 301 297 299
311 310 310 311 310 309 322 323 314 319 323 323 316 313 312 312 316 315 315 312 313 311 310 312 309 311 313 315 314 315 319 310 304 300 303 306 303 304 306 306 301 300 300 300
311 311 311 311 310 310 324 323 316 320 312 314 317 316 313 310 310 315 315 312 310 310 308 309 309 313 312 314 313 315 316 305 307 306 306 306 304 304 304 303 303 299 301 302
311 311 311 311 310 309 328 320 319 323 319 317 314 312 312 311 312 313 311 310 311 313 312 312 311 312 313 312 315 314 314 306 309 304 305 304 302 304 304 304 304 304 303 303
311 311 311 311 311 314 323 327 330 324 312 314 314 315 313 313 316 316 316 313 313 312 313 317 318 319 318 318 314 313 311 308 307 299 303 303 299 304 304 304 306 305 300 305
311 311 311 311 311 310 326 324 326 320 310 315 315 313 314 313 315 314 315 316 314 315 320 319 319 318 316 316 315 316 309 309 308 302 303 294 305 311 307 305 307 307 305 307
311 311 311 311 311 311 325 326 326 322 313 315 313 313 314 316 316 315 316 318 320 321 316 310 307 308 310 310 313 313 316 311 305 300 300 302 304 307 306 304 304 309 306 307
310 310 312 312 311 311 322 324 328 327 317 315 318 315 315 313 314 315 316 322 325 320 312 308 301 301 304 305 307 314 313 314 307 302 296 294 304 309 312 311 299 309 308 307
310 311 312 312 312 312 318 322 330 326 317 319 322 319 317 320 318 316 317 317 315 318 311 304 303 303 307 302 303 303 305 308 301 300 300 303 310 311 312 299 302 311 309 309
311 311 312 312 312 312 315 324 329 324 319 319 321 321 319 320 319 315 318 315 316 314 308 307 308 307 308 304 308 306 303 302 302 302 299 297 314 310 303 311 313 311 310 309
310 311 312 312 312 312 312 321 327 329 321 318 322 322 322 321 320 320 322 317 316 316 312 312 311 308 310 308 303 312 303 306 304 305 306 316 315 314 316 315 312 311 310 309
310 311 312 312 312 312 312 322 325 326 318 319 319 316 321 324 323 325 318 320 322 321 324 316 313 309 313 306 305 309 311 311 309 310 310 312 314 315 315 315 312 312 310 308
310 310 312 312 312 311 312 321 323 325 320 313 313 323 318 323 323 321 324 324 326 326 320 315 312 308 317 310 310 309 311 314 311 307 310 313 314 314 314 313 312 309 309 309
310 311 312 312 312 311 317 323 322 324 320 312 312 319 319 320 320 318 322 324 325 317 315 314 311 316 315 313 311 309 314 313 309 305 313 311 312 314 313 312 310 308 307 307
310 311 311 311 311 311 323 317 321 321 325 317 309 316 315 317 317 317 319 322 319 317 316 315 315 316 316 308 307 313 316 319 321 313 317 315 314 314 314 312 310 308 308 309
309 309 310 311 310 317 314 312 314 312 325 317 309 310 315 318 318 318 316 319 318 316 317 315 315 314 315 310 306 314 316 318 318 318 318 314 314 313 314 312 310 309 309 310
309 309 310 310 311 310 315 318 314 314 321 316 311 308 312 319 315 311 319 314 314 314 313 315 312 314 314 305 311 315 316 319 317 317 318 316 317 315 314 313 310 308 308 309
308 309 309 318 315 314 315 314 312 324 320 311 313 309 305 317 313 316 315 317 308 316 311 310 313 310 303 307 311 313 314 314 316 319 320 316 314 314 313 312 310 309 308 309
309 314 314 309 314 311 317 319 314 312 316 316 310 314 306 313 315 312 314 315 311 307 310 315 309 305 312 313 314 314 315 315 315 314 315 315 314 314 314 313 311 310 310 309
316 313 311 317 312 318 314 308 307 309 305 311 311 312 310 315 310 310 312 310 311 304 307 309 304 301 309 313 313 315 316 316 316 315 316 318 318 316 315 314 313 311 311 310
311 313 315 318 313 310 303 305 306 306 304 310 309 308 311 314 315 311 312 307 308 301 313 306 299 304 311 312 312 313 315 315 315 316 315 315 316 318 317 315 313 312 313 312
320 313 307 307 307 298 298 297 303 304 311 311 311 309 310 313 314 311 308 301 305 312 305 301 302 308 311 313 313 313 315 315 315 315 316 316 316 318 318 316 314 313 312 312
310 304 292 304 301 305 306 305 306 310 313 311 310 311 308 310 308 307 301 306 306 301 298 297 305 310 311 313 313 313 312 314 315 315 315 316 317 317 317 317 315 313 312 313
306 307 296 303 307 307 308 310 308 311 314 310 310 310 309 307 304 307 304 300 297 300 298 305 307 312 312 312 312 312 312 313 314 313 313 314 315 315 315 317 313 314 314 313
309 308 305 307 306 306 308 308 307 310 311 313 311 305 302 302 302 300 299 297 298 302 304 307 310 312 312 312 313 313 313 313 312 313 315 315 313 314 315 315 313 312 311 311
304 307 312 310 308 306 307 308 307 311 308 305 306 298 299 304 300 299 304 301 306 308 310 310 313 313 312 312 311 312 312 312 312 314 314 315 315 314 311 310 309 310 311 312

GFSNW_sfc_thetae_285.txt.gz
Theta_e
311 311 311 311 311 309 318 325 313 320 319 308 310 306 315 309 315 316 315 314 313 309 310 307 309 307 310 316 315 309 309 302 300 302 309 310 304 300 299 292 292 294 292 294
311 311 311 311 310 309 314 319 320 320 320 307 309 314 314 315 313 313 313 311 312 311 308 303 310 309 313 315 313 308 309 301 293 297 303 308 302 302 302 299 297 293 290 294
311 310 311 311 311 310 312 322 314 314 315 315 312 311 310 310 315 312 312 310 310 308 307 308 305 308 313 316 314 320 315 303 299 293 298 302 301 301 301 297 290 295 295 298
311 311 311 311 310 310 318 325 315 320 310 312 314 311 312 309 309 314 312 310 311 309 305 308 308 311 309 314 314 312 309 302 303 303 303 303 302 301 301 297 298 294 297 296
311 311 311 312 310 310 328 319 316 320 313 314 313 310 311 311 311 311 310 309 312 311 305 305 304 308 311 309 312 307 309 300 304 302 306 304 301 302 301 302 300 298 298 296
311 311 312 312 311 314 323 324 326 323 310 311 310 308 311 313 314 313 316 315 311 309 309 310 308 308 309 308 307 306 305 301 301 296 304 303 295 300 300 301 300 299 293 295
311 312 312 312 312 311 316 324 323 320 312 313 312 314 315 312 312 311 315 315 311 314 316 313 311 310 311 311 309 308 305 304 304 297 302 289 301 305 306 303 304 303 302 302
311 311 312 312 312 312 316 327 325 323 312 315 315 315 313 313 315 314 314 316 317 317 311 304 302 302 303 310 312 309 311 304 296 294 295 299 303 305 302 301 299 304 303 303
311 312 312 313 313 312 317 328 330 327 317 312 319 316 316 313 312 311 314 318 317 315 307 304 295 295 302 301 308 310 310 308 302 297 293 290 301 306 309 307 295 304 304 302
311 312 313 313 313 313 313 322 335 327 314 316 316 312 312 318 317 312 315 314 314 315 306 302 300 302 309 300 300 299 302 301 298 297 295 300 307 308 309 292 294 306 303 302
311 312 313 313 314 313 312 322 332 325 314 314 317 317 311 313 314 310 313 313 314 309 305 305 304 303 302 303 304 301 300 299 297 298 294 292 310 307 299 302 305 305 303 302
310 312 313 313 314 313 314 322 326 329 318 315 320 319 319 318 319 315 317 315 313 313 306 309 308 301 302 301 297 308 299 304 298 299 298 308 308 307 308 307 304 303 302 303
310 311 312 313 313 313 312 319 324 326 317 314 313 312 318 320 320 326 317 314 316 314 316 308 309 302 305 298 300 304 308 309 302 301 307 307 309 309 309 307 304 304 305 305
310 311 312 313 313 313 313 320 322 325 322 310 311 318 314 320 320 322 323 321 323 320 318 313 309 304 309 303 305 304 308 308 304 302 308 309 308 308 308 308 307 305 305 306
310 311 312 312 312 311 313 322 320 320 319 309 309 315 316 317 318 319 319 320 319 316 311 310 307 309 307 309 306 304 309 307 302 300 307 305 305 307 311 307 304 305 305 305
310 311 312 311 311 310 320 318 319 314 321 318 304 313 316 317 318 317 315 315 317 315 312 311 311 315 312 305 301 310 311 313 313 307 310 310 310 313 311 307 305 306 306 307
310 310 310 311 310 314 313 310 313 310 318 319 307 306 316 320 318 315 312 315 313 313 313 309 311 312 310 304 299 307 310 313 312 315 314 309 312 308 310 308 306 308 307 309
309 309 310 310 310 311 315 319 312 313 321 320 307 306 309 319 312 308 315 308 310 310 309 311 310 310 308 300 306 310 311 312 311 312 312 314 313 314 311 310 309 308 306 307
309 310 310 315 317 315 315 316 316 322 321 311 312 306 301 314 310 310 311 315 302 311 305 308 311 305 299 304 306 308 310 309 309 311 311 310 309 310 311 311 308 306 308 308
310 313 316 309 311 316 318 321 317 318 317 317 309 311 304 312 311 309 310 310 306 303 306 312 305 302 309 311 311 311 311 312 311 308 306 308 308 309 309 310 314 312 308 308
319 315 311 316 316 317 316 307 307 307 305 310 310 309 307 312 305 307 308 305 306 302 304 305 302 300 307 311 312 313 312 311 311 311 311 310 310 310 310 311 314 315 313 308
308 306 313 319 315 307 306 303 306 307 304 308 306 305 308 310 311 308 308 304 305 302 310 304 298 304 309 311 310 311 311 310 309 312 310 312 313 312 311 311 313 314 314 312
317 314 313 306 307 297 301 300 303 304 308 309 310 307 308 313 311 308 305 302 302 309 303 298 301 306 308 309 309 309 310 310 310 309 310 311 313 314 313 311 314 314 312 312
313 306 292 303 303 304 304 304 305 310 310 309 309 308 306 308 305 304 302 304 303 298 296 297 304 306 308 309 310 308 308 309 308 308 309 309 311 312 313 312 313 314 311 312
309 309 294 303 308 308 309 309 308 309 311 310 308 309 307 304 303 303 301 299 298 299 297 303 307 309 309 308 308 307 307 308 308 307 307 308 310 310 310 311 312 312 312 311
311 312 306 308 307 305 306 306 306 310 309 310 311 305 301 301 300 301 300 298 296 299 303 306 309 308 308 307 309 310 309 309 309 308 309 308 308 308 308 311 310 310 310 311
309 309 311 309 307 305 305 306 306 310 308 303 305 301 299 303 299 299 302 298 301 304 307 310 310 308 307 307 308 308 310 308 308 309 310 308 308 308 307 306 306 308 310 309

GFSNW_sfc_thetae_288.txt.gz
Theta_e
311 311 311 311 311 309 314 315 307 319 312 302 301 300 308 310 312 313 313 310 308 306 306 305 304 304 307 314 312 304 306 299 296 300 307 305 301 297 295 289 289 291 290 293
311 311 311 311 311 309 310 309 311 317 313 301 303 307 311 311 310 309 309 307 307 306 305 301 306 307 312 313 311 305 304 297 289 294 299 303 298 300 297 294 293 290 287 290
311 311 311 311 311 309 312 313 305 311 309 308 304 303 306 306 311 309 310 308 309 308 306 308 304 305 313 315 313 318 310 300 295 291 296 299 297 299 298 294 290 292 292 295
311 311 312 312 311 309 316 313 306 310 303 304 306 304 308 306 306 310 309 309 309 305 300 303 303 308 308 312 313 309 306 298 300 300 302 301 300 299 299 296 296 292 294 294
311 312 312 312 311 310 317 310 310 313 309 305 304 303 306 307 310 309 309 306 307 305 300 301 300 304 306 306 309 303 304 297 300 300 302 301 299 299 298 298 297 296 296 294
311 312 312 312 312 312 313 314 315 315 309 305 305 304 308 310 311 312 313 310 307 305 306 307 303 303 305 305 306 303 301 298 296 294 303 301 293 300 300 299 300 297 291 294
311 312 312 313 312 310 309 315 315 312 306 307 309 312 311 310 310 308 312 310 306 310 313 307 305 306 310 310 309 309 302 300 299 293 297 288 300 306 303 300 301 300 301 300
311 312 312 313 313 312 310 317 318 314 305 309 311 314 311 309 309 309 309 312 312 310 306 299 298 298 301 306 309 308 306 300 294 291 292 296 301 305 301 298 296 302 300 299
311 312 313 313 313 312 310 316 322 319 306 304 311 312 311 308 307 306 309 313 313 310 303 301 294 295 301 300 305 311 307 304 299 296 291 288 300 306 307 304 292 302 301 299
311 312 313 314 313 313 308 313 321 315 304 308 308 306 306 310 309 306 307 310 311 309 303 300 298 298 305 296 297 300 299 299 297 295 293 298 305 307 307 289 290 301 301 299
311 312 313 314 314 313 310 314 317 311 305 305 310 312 306 306 307 304 308 307 307 302 300 301 299 298 298 299 304 300 298 297 296 296 292 289 308 305 296 299 300 300 300 299
310 311 313 314 314 313 313 311 318 318 308 307 310 310 312 313 312 310 309 308 307 307 299 302 303 297 297 299 293 307 298 301 296 297 296 303 304 303 303 302 300 299 299 300
310 311 312 313 313 313 311 309 313 316 307 306 305 305 310 313 313 319 309 306 308 302 307 307 303 297 300 297 299 301 305 306 299 300 306 306 304 304 304 302 300 302 303 302
310 310 312 312 312 312 312 311 312 315 313 300 302 311 307 313 314 316 316 314 315 313 311 306 302 299 304 301 303 302 304 304 300 299 304 304 304 305 305 303 303 303 304 304
310 311 312 312 312 311 309 311 307 311 309 300 301 306 309 309 313 313 314 313 310 308 306 303 300 304 306 306 305 301 305 304 299 296 303 302 303 305 306 303 302 303 304 303
310 311 311 311 311 310 314 308 311 308 311 307 296 304 307 308 311 310 308 308 309 308 308 304 305 306 306 300 296 304 309 307 307 305 309 307 307 308 308 303 302 305 306 304
309 310 310 310 310 306 304 304 306 307 311 308 299 300 308 312 309 307 306 306 306 309 306 305 305 306 306 300 295 303 306 310 309 311 313 308 312 310 308 305 304 307 306 305
309 309 310 310 309 310 303 309 310 309 314 311 299 299 302 308 304 301 305 301 302 303 304 306 304 304 302 297 303 304 307 308 309 310 309 307 310 311 309 307 305 306 305 305
309 309 310 309 306 303 304 315 314 311 310 302 302 297 294 306 303 301 304 304 296 302 301 304 304 299 296 301 301 304 306 304 305 308 308 307 307 307 308 309 310 306 306 307
310 311 307 298 302 314 316 310 304 302 305 305 300 301 299 303 303 302 302 302 298 297 300 305 299 299 307 308 308 306 306 307 307 304 304 305 305 306 307 307 309 310 311 311
306 304 302 307 314 309 305 299 299 300 297 301 301 299 299 304 298 299 300 297 299 297 298 300 298 298 305 308 308 309 308 308 307 306 305 306 307 307 307 308 310 311 311 310
302 301 304 308 306 299 299 296 299 299 297 300 299 300 300 301 303 301 300 296 299 297 305 299 297 303 306 307 308 308 308 307 306 307 306 307 309 310 310 309 308 310 311 311
307 309 305 298 299 294 299 295 297 296 300 301 301 300 299 301 302 299 298 297 296 302 297 296 300 305 306 307 307 307 306 306 305 305 306 307 309 309 309 308 309 309 310 311
305 300 291 298 296 297 298 297 297 301 301 301 300 299 297 299 297 297 296 298 299 296 293 296 302 304 306 307 307 303 303 305 304 304 305 306 308 307 308 308 308 308 308 309
302 302 292 297 299 301 301 301 299 301 301 300 300 299 299 296 296 297 295 295 294 295 294 297 301 304 304 302 303 303 303 304 307 307 305 305 306 305 304 307 306 306 308 308
304 304 298 299 298 297 298 298 297 300 300 301 300 297 295 295 294 295 295 295 292 294 298 302 304 301 301 301 303 304 304 306 304 304 305 306 307 304 303 304 304 304 305 305
306 301 303 299 298 296 296 297 297 300 299 296 298 295 293 296 295 295 296 294 296 299 303 303 303 301 301 302 302 303 304 303 302 301 303 305 307 304 302 301 301 302 303 304